CZ-3A DEB, 40813

Orbit data source: Space-Track

CZ-3A DEB, 40813 is space debris in HEO originally from a launch on Fri, 02 Feb 2007 UTC launched from the Xichang Space Center, China (XSC). Debris objects in space refer to the collection of defunct objects orbiting the Earth. Examples of debris include non-operational satellites, rocket bodies, and fragments generated from explosions, collisions, or faulty payload assembly.

Not visible in the next 10 days
Identifier
40813, 2007-003AS
Orbit
HEO
Country
Flag of CNCN / PRC
Related business
Manufacturer
Unknown
Mission
Spacecraft
Bus & Motor
Unknown
Mass
Unknown
Launch date (UTC)
2007-02-02 (19 years ago)
Launch vehicle
Unknown
Launch site
Xichang Space Center, China (XSC)
Object type
Payload
Rocket body
Debris
Shape & HBR
Unknown shape, 0.3 m
Radar Cross Section
Medium (>0.1 m² and <1 m²)

Expand to show TLE details & history
Last TLE update: 6 hours ago

TLE from 6 hours ago
0 CZ-3A DEB
1 40813U 07003AS  25343.59287898  .00001935  00000-0  13256-1 0  9995
2 40813  26.0473 106.4350 7676217 115.9639 338.0213  1.72354438 81195
Epoch: 2025-12-09T14:13Z
TLE epoch observation values (Epoch: 2025-12-09T14:13:44.743Z)
Latitude
-0.00001°
Longitude
174.25832°
Altitude
11,850.268 km
Speed
5.492 km/s
True Right ascension
07h 05m 04s
True Declination
0° 00' 00"
Sunlit
Object was in daylight at epoch
Visualization orbit readout
Latitude
Unknown
Longitude
Unknown
Altitude
Unknown
Speed
Unknown
Apparent Right ascension
Unknown
Apparent Declination
Unknown
Sunlit
N/A
Visualization observer readout
Local Sidereal Time
18:38:22
Azimuth
Unknown
Elevation
Unknown
Doppler factor
Unknown
Orbital elements
Apogee altitude
45,569.954 km
Perigee altitude
451.157 km
Semi-major axis
29,388.693 km
Eccentricity
0.76762
Inclination
26.0473°
RAAN
106.435°
Arg. of periapsis
115.9639°
True anomaly
244.14395°
Mean anomaly
338.0213°
Eccentric anomaly
299.89011°
Mean motion
0.4308 °/min
Orbital period
835.66 mins
BSTAR
0.013256
Loading maneuver chart data...
Computing Atmospheric mass density...
Loading historical data...
Loading historical data...
Loading historical data...
Loading historical data...
Loading historical data...
Loading historical data...
Loading historical data...

Documentation

Showing up to 5 results
|